sat.trackr.live / text

‹ back to catalog

STARLINK-5570

NORAD 55433 · 2023-014AU

PAYLOAD ACTIVE UNKNOWN

§ Identity

Operator
Country
US
Launch date
2023-01-31
Launch site
AFWTR
Launch vehicle
Mass (kg)
RCS (m²)

Purposes: comms

External: N2YO · Heavens-Above · Gunter

§ Orbital elements

Epoch: 2026-09-20T21:52:45.950880Z

Period
96.11 min
Inclination
70.0004°
Eccentricity
0.0003394
Mean motion
14.98329778 rev/d
Perigee alt
569.7 km
Apogee alt
574.4 km
Semi-major
6,950.2 km
B*
-1.4346e-5
RAAN
332.1293°
Arg perigee
270.3270°
Mean anomaly
89.7500°
Rev number
20,031

§ Raw data

STARLINK-55701 55433U 23014AU  26263.91164295 -.00000264  00000+0 -14346-4 0  99912 55433  70.0004 332.1293 0003394 270.3270  89.7500 14.98329778200319

JSON: /api/v1/satellites/55433 · /tle

For live sub-satellite position, see the globe view (requires WebGL).

§ Visibility from observer

Set your observer location to see the next 7 days of passes ≥ 10°. The values pass through the URL so the page stays shareable.

No JS? Fill the form by hand. The geolocation button needs JavaScript.